Location: Be Hoi Lekpe
(6.5991°N, 10.8888°W)
Time: 10:16:15
(UTC+00:00)

Daily predictions for brighter satellites

Satellite Brightness Start Highest point End
(mag) Time Altitude Azimuth Time Altitude Azimuth Time Altitude Azimuth
Cosmos 1624 Rocket 4.1 19:02:49 10° N 19:08:02 60° ENE 19:13:17 10° SSE
Cosmos 2237 Rocket 4.1 19:03:51 10° SW 19:08:57 36° WNW 19:14:04 10° N
Cosmos 1805 3.5 19:06:18 10° SSE 19:10:04 47° E 19:13:49 10° NNE
STARLINK-1153 4.1 19:08:17 10° N 19:11:02 26° NE 19:13:48 10° ESE
STARLINK-1180 4.0 19:08:28 10° N 19:11:11 26° NE 19:13:56 10° ESE
STARLINK-1174 4.0 19:08:52 10° N 19:11:39 27° NE 19:14:26 10° ESE
STARLINK-1139 4.0 19:09:07 10° N 19:11:51 27° NE 19:14:35 10° ESE
STARLINK-1133 4.0 19:09:20 10° N 19:12:08 27° NE 19:14:55 10° ESE
STARLINK-1151 4.0 19:09:36 10° N 19:12:24 28° NE 19:15:12 10° ESE
Uosat 12 SS-18 rocket 4.5 19:10:44 10° N 19:15:08 51° ENE 19:20:16 10° SE
STARLINK-1183 3.8 19:12:25 10° N 19:15:11 30° NE 19:17:58 10° ESE
STARLINK-1181 3.8 19:12:51 10° N 19:15:38 30° NE 19:18:25 10° ESE
STARLINK-1196 3.8 19:13:18 10° N 19:16:05 31° NE 19:18:53 10° ESE
STARLINK-1186 3.7 19:13:43 10° N 19:16:33 31° NE 19:19:22 10° ESE
Cosmos 1269 Rocket 4.0 19:11:20 10° S 19:16:33 67° ESE 19:21:47 10° NNE
STARLINK-1185 3.7 19:14:11 10° N 19:16:59 32° NE 19:19:48 10° ESE
STARLINK-1182 3.7 19:14:31 10° NNW 19:17:25 33° NE 19:20:20 10° ESE
STARLINK-1175 3.7 19:14:36 10° NNW 19:17:28 32° NE 19:20:19 10° ESE
STARLINK-1164 3.7 19:14:36 10° NNW 19:17:31 33° NE 19:20:26 10° ESE
STARLINK-1160 3.7 19:14:38 10° NNW 19:17:35 33° NE 19:20:33 10° ESE
STARLINK-1161 3.7 19:14:41 10° NNW 19:17:36 33° NE 19:20:33 10° ESE
STARLINK-1168 3.7 19:14:44 10° NNW 19:17:38 33° NE 19:20:33 10° ESE
STARLINK-1145 3.7 19:14:43 10° NNW 19:17:39 33° NE 19:20:35 10° ESE
STARLINK-1172 3.7 19:14:46 10° NNW 19:17:42 33° NE 19:20:39 10° ESE
STARLINK-1147 3.7 19:15:03 10° NNW 19:17:53 33° NE 19:20:44 10° ESE
FengYun 1-2 T 4.2 19:12:24 10° SSE 19:17:59 85° ENE 19:23:28 10° N
STARLINK-1146 3.6 19:15:30 10° NNW 19:18:20 33° NE 19:21:11 10° ESE
STARLINK-1152 3.6 19:15:56 10° NNW 19:18:48 34° NE 19:21:39 10° ESE
STARLINK-1195 3.6 19:16:21 10° NNW 19:19:15 35° NE 19:22:09 10° ESE
STARLINK-1137 3.6 19:16:49 10° NNW 19:19:41 35° NE 19:22:34 10° ESE
Intelsat 5-1 Rocket 3.2 19:17:52 10° WSW 19:19:58 21° SSW 19:23:08 10° SE
Cosmos 1553 Rocket 4.0 19:13:55 10° S 19:20:03 90° NNW 19:26:07 10° N
STARLINK-1142 3.5 19:17:13 10° NNW 19:20:08 36° NE 19:23:03 10° SE
STARLINK-1127 3.5 19:17:41 10° NNW 19:20:35 36° NE 19:23:29 10° SE
STARLINK-1184 3.5 19:18:08 10° NNW 19:21:02 37° NE 19:23:56 10° SE
STARLINK-1193 3.5 19:18:34 10° NNW 19:21:30 38° NE 19:24:27 10° SE
STARLINK-1194 3.4 19:19:01 10° NNW 19:21:56 38° NE 19:24:52 10° SE
CZ-4 R/B 1.4 19:20:25 10° SSE 19:24:19 56° ENE 19:28:08 10° N
ARIANE 5 DEB (SYLDA) 4.3 19:18:21 10° W 19:25:10 86° S 19:27:38 13° E
STARLINK-1150 3.1 19:22:18 10° NNW 19:25:31 58° NE 19:28:45 10° SE
ATLAS 3B CENTAUR R/B 4.1 19:26:48 10° NNW 19:27:50 10° N 19:28:46 10° N
Cosmos 1470 4.3 19:28:02 10° SE 19:30:25 16° E 19:32:47 10° NE
STARLINK-1132 2.9 19:28:26 10° NNW 19:31:43 75° NE 19:35:02 10° SE
ADEOS Rocket 4.2 19:27:05 10° N 19:32:46 44° WNW 19:38:04 10° SSW
Cosmos 2098 Rocket 3.4 19:28:34 10° N 19:33:10 77° E 19:39:02 10° S
STARLINK-1177 2.9 19:30:25 10° NNW 19:33:43 81° NE 19:37:02 10° SE
STARLINK-1167 2.9 19:31:41 10° NNW 19:34:59 86° NE 19:38:19 10° SE
Cosmos 1707 3.5 19:32:11 10° NNW 19:36:00 57° W 19:39:51 10° S
Cosmos 1420 Rocket 4.2 19:31:36 10° N 19:36:36 48° ENE 19:41:35 10° SSE
Cosmos 1844 4.0 19:31:02 10° NNW 19:36:43 72° WSW 19:42:28 10° S
Cosmos 2278 Rocket 3.4 19:33:00 10° NNE 19:37:02 20° ENE 19:39:15 16° ESE
Cosmos 2056 Rocket 4.0 19:32:49 10° NNW 19:37:49 61° WSW 19:42:51 10° S
STARLINK-1163 3.0 19:34:44 10° NW 19:38:03 84° SW 19:41:22 10° SSE
Cosmos 1939 Rocket 2.8 19:40:22 10° SSE 19:44:26 82° ENE 19:48:26 10° N
Cosmos 1733 3.3 19:43:08 10° S 19:46:55 77° W 19:50:40 10° N
Aurora 2 Rocket 3.7 19:44:39 10° W 19:47:40 28° SSW 19:50:51 12° SSE
Okean-O 4.4 19:43:49 10° SSW 19:47:48 34° WSW 19:51:48 10° NW
Meteor 1-22 Rocket 4.2 19:42:54 10° S 19:48:24 80° W 19:53:43 10° N
CSL-04 Debris 4.1 19:43:03 10° SSE 19:48:31 69° ENE 19:53:57 10° N
Meteor 2-8 Rocket 4.4 19:42:45 10° S 19:48:56 85° E 19:55:04 10° N
Cosmos 1271 Rocket 2.5 19:46:32 10° N 19:50:14 83° E 19:53:59 10° S
Meteor 2-15 4.5 19:55:08 10° S 20:01:03 54° E 20:06:55 10° NNE
CZ-2D R/B 4.0 19:58:48 10° S 20:02:34 53° W 20:06:17 10° NNW
SL-4 R/B 1.8 20:02:14 10° SSW 20:05:18 47° SSE 20:05:18 47° SSE
Cosmos 1943 4.0 20:01:27 10° SSE 20:05:12 28° SE 20:05:12 28° SE
YAOGAN 1 3.7 20:04:13 10° S 20:08:19 44° WSW 20:12:25 10° NNW
Ariane Rocket 3.4 20:10:49 39° E 20:10:56 39° ENE 20:15:38 10° N
Cosmos 371 Rocket 3.4 20:06:36 10° N 20:11:14 48° ENE 20:11:51 45° E
Cosmos 1818 4.4 20:08:03 10° S 20:11:31 29° SE 20:11:31 29° SE
Ariane H10+ 4.1 20:05:14 10° WSW 20:13:11 37° SSW 20:15:24 27° SSE
Cosmos 1674 2.5 20:09:58 10° N 20:13:39 89° E 20:15:01 37° S
Cosmos 1452 Rocket 3.4 20:08:51 10° NNW 20:14:07 89° E 20:19:16 11° SSE
USA 81 3.9 20:09:30 10° N 20:14:44 75° E 20:20:00 10° S
KORONAS-FOTON 3.6 20:13:19 10° N 20:17:05 89° E 20:17:38 63° S
NOSS 3-3 (A) 4.0 20:15:07 10° SSW 20:20:37 66° WNW 20:26:17 10° NNE
NOSS 3-3 (C) 4.0 20:15:13 10° SSW 20:20:44 67° WNW 20:26:24 10° NNE
TRAILBLAZER 4.5 20:16:41 10° SSW 20:21:19 78° ESE 20:22:17 55° NE
ARGOS Delta rocket 3.7 20:23:01 59° SE 20:23:44 69° E 20:28:40 10° N
USA 229 DEB 3.8 20:16:55 10° NNW 20:24:32 76° ENE 20:29:03 28° SSE
USA 229 3.8 20:17:01 10° NNW 20:24:38 75° ENE 20:29:04 28° SSE
Centaur D-1AR AC-39 1.8 20:22:52 10° WNW 20:27:45 58° N 20:27:45 58° N
deb Ariane 2.9 20:21:57 10° W 20:28:15 84° WNW 20:28:15 84° WNW
Lacrosse 4 Rocket 4.1 20:26:26 10° WNW 20:29:30 19° WSW 20:32:32 10° SSW
GEOS 3 Rocket 3.6 20:29:56 40° SSE 20:31:45 74° WSW 20:36:50 10° NNW
SJ-11-01 4.2 20:32:26 75° S 20:32:50 86° WSW 20:37:31 10° NNW
NOSS 3-1 (A) 4.3 20:24:32 10° N 20:33:01 59° ENE 20:35:41 44° ESE
GPS 2-17 Rocket1 4.0 20:29:31 10° NW 20:33:36 38° N 20:33:36 38° N
Delta 168 4.4 20:31:01 10° W 20:35:22 41° SSW 20:36:31 37° S
H-2A R/B 2.4 20:36:35 52° NNE 20:36:35 52° NNE 20:40:46 10° N
Cosmos 332 Rocket 4.5 20:33:52 10° N 20:37:11 43° N 20:37:11 43° N
SL-08 ROCKET BODY 4.5 20:33:20 10° N 20:39:19 73° W 20:45:11 10° S
Cosmos 1892 Rocket 4.1 20:35:06 10° NNW 20:39:28 56° W 20:40:22 47° SW
Cosmos 1603 3.8 20:38:42 10° SSW 20:44:22 72° WNW 20:47:53 24° N
Atlas Centaur 2 2.9 20:43:14 10° NW 20:46:44 35° NNW 20:46:44 35° NNW
Hubble Space Telescope 3.2 20:44:45 10° SW 20:45:45 16° SW 20:45:45 16° SW
ARIANE DEB (SPELDA) 4.3 12:19:21 10° W 20:51:59 75° S 20:53:28 61° SE
Centaur AC-42 4.4 21:08:19 10° NW 21:09:11 12° NNW 21:09:11 12° NNW
Cosmos 2278 Rocket 3.9 21:16:04 10° NW 21:20:51 29° WSW 21:21:13 28° WSW
ATLAS 5 CENTAUR R/B 3.9 21:23:15 10° WNW 21:29:38 44° N 21:31:28 42° NNE
